sat.trackr.live / text

‹ back to catalog

YUNHAI-2 02B

NORAD 59281 · 2024-052B

PAYLOAD ACTIVE UNKNOWN

§ Identity

Operator
Country
PRC
Launch date
2024-03-21
Launch site
JSC
Launch vehicle
Mass (kg)
RCS (m²)

External: N2YO · Heavens-Above · Gunter

§ Orbital elements

Epoch: 2026-05-25T04:40:40.037376Z

Period
100.84 min
Inclination
50.0087°
Eccentricity
0.0004483
Mean motion
14.27964426 rev/d
Perigee alt
795.3 km
Apogee alt
801.8 km
Semi-major
7,176.7 km
B*
7.7515e-5
RAAN
119.9205°
Arg perigee
108.0302°
Mean anomaly
252.1101°
Rev number
11,332

§ Raw data

YUNHAI-2 02B1 59281U 24052B   26145.19490784  .00000032  00000+0  77515-4 0  99912 59281  50.0087 119.9205 0004483 108.0302 252.1101 14.27964426113324

JSON: /api/v1/satellites/59281 · /tle

For live sub-satellite position, see the globe view (requires WebGL).

§ Visibility from observer

Set your observer location to see the next 7 days of passes ≥ 10°. The values pass through the URL so the page stays shareable.

No JS? Fill the form by hand. The geolocation button needs JavaScript.